FW9314 Weather Reports


time (UTC)temp
C
wind
direction
speed
KPH
gust
KPH
rain 1hr
cm
rain 24hr
cm
rain mn
cm
humidity
%
barometer
mb
20260906182557 37 0 0.0 3.2 0.00 0.00 0.00 47 1014.6
20260906182058 36 150 0.0 3.2 0.00 0.00 0.00 50 1014.5
20260906181603 36 122 0.0 3.2 0.00 0.00 0.00 49 1014.7
20260906181058 35 143 1.6 3.2 0.00 0.00 0.00 51 1014.8
20260906180556 35 96 0.0 6.4 0.00 0.00 0.00 51 1014.9
20260906180107 35 81 1.6 6.4 0.00 0.00 0.00 51 1014.9
20260906175557 35 173 1.6 4.8 0.00 0.00 0.00 50 1015.0
20260906175059 35 78 1.6 3.2 0.00 0.00 0.00 52 1015.2
20260906174558 35 94 0.0 4.8 0.00 0.00 0.00 54 1015.3
20260906174057 35 82 1.6 4.8 0.00 0.00 0.00 52 1015.3
20260906173558 35 0 0.0 3.2 0.00 0.00 0.00 52 1015.4
20260906173113 35 0 1.6 4.8 0.00 0.00 0.00 52 1015.5
20260906172559 35 156 0.0 4.8 0.00 0.00 0.00 54 1015.5
20260906172100 35 180 1.6 4.8 0.00 0.00 0.00 54 1015.5
20260906171605 34 0 0.0 1.6 0.00 0.00 0.00 54 1015.6
20260906171056 34 283 0.0 1.6 0.00 0.00 0.00 57 1015.7
20260906170559 33 0 0.0 1.6 0.00 0.00 0.00 59 1015.9
20260906170110 33 300 0.0 1.6 0.00 0.00 0.00 54 1015.9
20260906165558 34 0 0.0 1.6 0.00 0.00 0.00 59 1015.9
20260906165057 33 97 0.0 1.6 0.00 0.00 0.00 62 1016.0
20260906164601 33 0 0.0 1.6 0.00 0.00 0.00 60 1016.0
20260906164057 33 0 0.0 1.6 0.00 0.00 0.00 63 1016.0
20260906163601 32 0 0.0 1.6 0.00 0.00 0.00 63 1016.1
20260906163102 32 0 0.0 3.2 0.00 0.00 0.00 63 1016.1
20260906162559 32 98 0.0 6.4 0.00 0.00 0.00 61 1016.1
20260906162057 32 0 0.0 6.4 0.00 0.00 0.00 61 1015.9
20260906161601 32 85 0.0 4.8 0.00 0.00 0.00 61 1015.9
20260906161057 32 101 1.6 4.8 0.00 0.00 0.00 61 1015.8
20260906160557 32 0 0.0 3.2 0.00 0.00 0.00 61 1015.9
20260906160104 32 114 1.6 3.2 0.00 0.00 0.00 62 1015.8
20260906155557 32 75 0.0 3.2 0.00 0.00 0.00 64 1015.8
20260906155058 31 82 0.0 3.2 0.00 0.00 0.00 64 1015.7
20260906154604 31 0 0.0 1.6 0.00 0.00 0.00 63 1015.7
20260906154057 31 0 0.0 3.2 0.00 0.00 0.00 63 1015.8
20260906153558 32 95 0.0 3.2 0.00 0.00 0.00 62 1015.7
20260906153104 32 0 0.0 1.6 0.00 0.00 0.00 63 1015.7
20260906152559 32 109 0.0 1.6 0.00 0.00 0.00 62 1015.7
20260906152058 32 0 0.0 3.2 0.00 0.00 0.00 62 1015.6
20260906151602 32 0 0.0 3.2 0.00 0.00 0.00 62 1015.6
20260906151058 32 137 0.0 1.6 0.00 0.00 0.00 63 1015.6
20260906150558 32 0 0.0 4.8 0.00 0.00 0.00 63 1015.6
20260906150111 32 131 1.6 4.8 0.00 0.00 0.00 63 1015.5
20260906145557 31 147 1.6 4.8 0.00 0.00 0.00 65 1015.5
20260906145057 31 103 0.0 4.8 0.00 0.00 0.00 67 1015.5
20260906144607 30 81 1.6 4.8 0.00 0.00 0.00 67 1015.4
20260906144057 30 117 1.6 4.8 0.00 0.00 0.00 68 1015.5
20260906143556 30 117 0.0 3.2 0.00 0.00 0.00 69 1015.5
20260906143101 30 105 0.0 3.2 0.00 0.00 0.00 71 1015.6
20260906142557 29 105 0.0 3.2 0.00 0.00 0.00 73 1015.6
20260906142058 28 112 0.0 3.2 0.00 0.00 0.00 75 1015.6
20260906141618 28 130 0.0 4.8 0.00 0.00 0.00 76 1015.7
20260906141057 27 83 1.6 4.8 0.00 0.00 0.00 76 1015.6
20260906140557 27 119 0.0 8.0 0.00 0.00 0.00 78 1015.7
20260906140116 27 0 0.0 8.0 0.00 0.00 0.00 79 1015.6
20260906135557 27 115 0.0 8.0 0.00 0.00 0.00 80 1015.5
20260906135058 26 120 0.0 4.8 0.00 0.00 0.00 80 1015.5
20260906134631 26 89 0.0 4.8 0.00 0.00 0.00 81 1015.4
20260906134057 26 136 0.0 3.2 0.00 0.00 0.00 83 1015.6
20260906133557 26 77 0.0 3.2 0.00 0.00 0.00 83 1015.5
20260906133111 26 0 0.0 3.2 0.00 0.00 0.00 83 1015.4
20260906132557 25 0 0.0 3.2 0.00 0.00 0.00 84 1015.5
20260906132057 25 0 0.0 3.2 0.00 0.00 0.00 85 1015.5
20260906131601 25 95 0.0 3.2 0.00 0.00 0.00 86 1015.4
20260906131058 25 0 0.0 1.6 0.00 0.00 0.00 88 1015.3
20260906130558 24 0 0.0 1.6 0.00 0.00 0.00 89 1015.3
20260906130146 23 105 0.0 1.6 0.00 0.00 0.00 89 1015.4
20260906125558 23 100 0.0 1.6 0.00 0.00 0.00 90 1015.3
20260906125056 23 0 0.0 1.6 0.00 0.00 0.00 91 1015.3
20260906124609 23 0 0.0 1.6 0.00 0.00 0.00 91 1015.2
20260906124057 23 0 0.0 0.0 0.00 0.00 0.00 92 1015.2
20260906123557 23 0 0.0 0.0 0.00 0.00 0.00 93 1014.9
20260906123104 22 0 0.0 0.0 0.00 0.00 0.00 93 1014.9
20260906122556 22 0 0.0 0.0 0.00 0.00 0.00 94 1014.8
20260906122058 22 0 0.0 0.0 0.00 0.00 0.00 94 1014.8
20260906121610 22 0 0.0 0.0 0.00 0.00 0.00 93 1014.8
20260906121057 22 0 0.0 0.0 0.00 0.00 0.00 92 1014.7
20260906120557 22 0 0.0 0.0 0.00 0.00 0.00 92 1014.5
20260906120111 22 0 0.0 0.0 0.00 0.00 0.00 92 1014.5
20260906115557 22 0 0.0 0.0 0.00 0.00 0.00 92 1014.5
20260906115058 22 0 0.0 0.0 0.00 0.00 0.00 93 1014.4
20260906114607 22 0 0.0 0.0 0.00 0.00 0.00 93 1014.3
20260906114058 22 0 0.0 0.0 0.00 0.00 0.00 93 1014.3
20260906113557 22 0 0.0 0.0 0.00 0.00 0.00 93 1014.2
20260906113108 22 0 0.0 0.0 0.00 0.00 0.00 94 1014.3
20260906112557 22 0 0.0 0.0 0.00 0.00 0.00 94 1014.2
20260906112058 22 0 0.0 0.0 0.00 0.00 0.00 94 1014.2
20260906111602 22 0 0.0 0.0 0.00 0.00 0.00 94 1014.3
20260906111058 22 0 0.0 0.0 0.00 0.00 0.00 93 1014.2
20260906110558 22 0 0.0 0.0 0.00 0.00 0.00 93 1014.3
20260906110101 22 0 0.0 0.0 0.00 0.00 0.00 93 1014.1
20260906105557 22 0 0.0 0.0 0.00 0.00 0.00 93 1014.2
20260906105056 22 0 0.0 0.0 0.00 0.00 0.00 93 1014.1
20260906104603 22 0 0.0 0.0 0.00 0.00 0.00 93 1014.1
20260906104059 22 0 0.0 0.0 0.00 0.00 0.00 93 1014.2
20260906103555 22 0 0.0 0.0 0.00 0.00 0.00 93 1014.2
20260906103101 22 0 0.0 0.0 0.00 0.00 0.00 93 1014.1
20260906102559 22 0 0.0 0.0 0.00 0.00 0.00 94 1014.2
20260906102058 22 0 0.0 0.0 0.00 0.00 0.00 94 1014.1
20260906101602 22 0 0.0 0.0 0.00 0.00 0.00 93 1014.2
20260906101058 22 0 0.0 0.0 0.00 0.00 0.00 93 1014.1
20260906100558 22 0 0.0 0.0 0.00 0.00 0.00 92 1014.1
20260906100059 22 0 0.0 0.0 0.00 0.00 0.00 92 1014.1
20260906095559 22 0 0.0 0.0 0.00 0.00 0.00 91 1014.2
20260906095059 22 0 0.0 0.0 0.00 0.00 0.00 91 1014.2
20260906094601 23 0 0.0 0.0 0.00 0.00 0.00 90 1014.1
20260906094056 23 0 0.0 0.0 0.00 0.00 0.00 90 1014.2
20260906093559 23 0 0.0 0.0 0.00 0.00 0.00 90 1014.2
20260906093105 23 0 0.0 0.0 0.00 0.00 0.00 90 1014.1
20260906092559 23 0 0.0 0.0 0.00 0.00 0.00 89 1014.1
20260906092059 23 0 0.0 0.0 0.00 0.00 0.00 88 1014.1
20260906091608 23 0 0.0 0.0 0.00 0.00 0.00 88 1014.0
20260906091058 23 0 0.0 0.0 0.00 0.00 0.00 88 1014.0
20260906090558 23 0 0.0 0.0 0.00 0.00 0.00 88 1014.0
20260906085555 24 0 0.0 0.0 0.00 0.00 0.00 87 1014.0
20260906085058 24 0 0.0 0.0 0.00 0.00 0.00 87 1013.9
20260906084606 24 0 0.0 0.0 0.00 0.00 0.00 87 1013.8
20260906084100 24 0 0.0 0.0 0.00 0.00 0.00 86 1013.7
20260906083559 24 0 0.0 0.0 0.00 0.00 0.00 86 1013.7
20260906083104 24 0 0.0 0.0 0.00 0.00 0.00 86 1013.6
20260906082559 24 0 0.0 0.0 0.00 0.00 0.00 85 1013.7
20260906082057 25 0 0.0 0.0 0.00 0.00 0.00 85 1013.6
20260906081603 25 0 0.0 1.6 0.00 0.00 0.00 85 1013.7
20260906081101 25 0 0.0 1.6 0.00 0.00 0.00 84 1013.8
20260906080559 25 0 0.0 0.0 0.00 0.00 0.00 84 1013.6
20260906075558 25 0 0.0 0.0 0.00 0.00 0.00 81 1013.5
20260906075058 25 0 0.0 0.0 0.00 0.00 0.00 81 1013.5
20260906074600 25 0 0.0 0.0 0.00 0.00 0.00 81 1013.5
20260906074058 26 0 0.0 0.0 0.00 0.00 0.00 80 1013.6
20260906073558 26 0 0.0 0.0 0.00 0.00 0.00 79 1013.6
20260906073100 26 0 0.0 1.6 0.00 0.00 0.00 79 1013.5
20260906072558 26 0 0.0 1.6 0.00 0.00 0.00 79 1013.5
20260906072057 26 0 0.0 1.6 0.00 0.00 0.00 79 1013.5
20260906071604 26 0 0.0 0.0 0.00 0.00 0.00 78 1013.6
20260906071103 26 0 0.0 0.0 0.00 0.00 0.00 78 1013.6
20260906070559 26 0 0.0 0.0 0.00 0.00 0.00 77 1013.6
20260906065558 26 0 0.0 1.6 0.00 0.00 0.00 77 1013.6
20260906065059 26 0 0.0 0.0 0.00 0.00 0.00 77 1013.8
20260906064602 26 0 0.0 0.0 0.00 0.00 0.00 77 1013.8
20260906064059 26 0 0.0 0.0 0.00 0.00 0.00 78 1013.7
20260906063600 26 0 0.0 0.0 0.00 0.00 0.00 78 1013.8
20260906063103 26 0 0.0 1.6 0.00 0.00 0.00 78 1013.8
20260906062558 26 0 0.0 1.6 0.00 0.00 0.00 78 1013.8
20260906062059 26 0 0.0 0.0 0.00 0.00 0.00 79 1013.8
20260906061626 26 0 0.0 0.0 0.00 0.00 0.00 79 1013.8
20260906061101 26 0 0.0 0.0 0.00 0.00 0.00 80 1013.8
20260906060559 26 0 0.0 0.0 0.00 0.00 0.00 80 1013.8
20260906060116 26 0 0.0 0.0 0.00 0.00 0.00 79 1013.7
20260906055558 26 0 0.0 0.0 0.00 0.00 0.00 79 1013.8
20260906055058 26 0 0.0 0.0 0.00 0.00 0.00 79 1013.8
20260906054601 26 0 0.0 0.0 0.00 0.00 0.00 79 1013.8
20260906054058 26 0 0.0 0.0 0.00 0.00 0.00 78 1013.9
20260906053558 26 0 0.0 0.0 0.00 0.00 0.00 78 1013.9
20260906053105 26 0 0.0 0.0 0.00 0.00 0.00 77 1013.8
20260906052558 27 0 0.0 0.0 0.00 0.00 0.00 77 1013.8
20260906052058 27 0 0.0 0.0 0.00 0.00 0.00 77 1013.9
20260906051606 27 88 0.0 0.0 0.00 0.00 0.00 77 1013.9
20260906051058 27 0 0.0 1.6 0.00 0.00 0.00 76 1013.9
20260906050559 27 0 0.0 1.6 0.00 0.00 0.00 75 1013.8
20260906050105 27 0 0.0 1.6 0.00 0.00 0.00 75 1014.0
20260906045603 27 0 0.0 1.6 0.00 0.00 0.00 75 1013.9
20260906045058 27 0 0.0 1.6 0.00 0.00 0.00 74 1013.9
20260906044603 27 0 0.0 1.6 0.00 0.00 0.00 74 1013.8
20260906044058 28 0 0.0 1.6 0.00 0.00 0.00 73 1013.7
20260906043602 28 87 0.0 1.6 0.00 0.00 0.00 73 1013.7
20260906043106 28 0 0.0 3.2 0.00 0.00 0.00 73 1013.7
20260906042558 28 0 0.0 3.2 0.00 0.00 0.00 73 1013.8
20260906042058 28 85 0.0 3.2 0.00 0.00 0.00 73 1013.7
20260906041602 28 116 0.0 1.6 0.00 0.00 0.00 73 1013.8
20260906041058 28 95 0.0 1.6 0.00 0.00 0.00 73 1013.6
20260906040557 28 0 0.0 1.6 0.00 0.00 0.00 73 1013.8
20260906040103 28 84 0.0 1.6 0.00 0.00 0.00 73 1013.5
20260906035557 28 0 0.0 1.6 0.00 0.00 0.00 72 1013.5
20260906035058 28 0 0.0 4.8 0.00 0.00 0.00 72 1013.5
20260906034606 28 0 0.0 4.8 0.00 0.00 0.00 72 1013.5
20260906034056 28 113 0.0 1.6 0.00 0.00 0.00 71 1013.4
20260906033557 28 0 0.0 1.6 0.00 0.00 0.00 71 1013.4
20260906033104 28 0 0.0 1.6 0.00 0.00 0.00 70 1013.2
20260906032557 28 0 0.0 1.6 0.00 0.00 0.00 70 1013.3
20260906032058 28 0 0.0 1.6 0.00 0.00 0.00 70 1013.2
20260906031603 28 101 0.0 3.2 0.00 0.00 0.00 70 1013.1
20260906031101 28 134 0.0 3.2 0.00 0.00 0.00 71 1013.1
20260906030558 28 0 0.0 0.0 0.00 0.00 0.00 70 1013.0
20260906030101 27 0 0.0 0.0 0.00 0.00 0.00 70 1013.0
20260906025557 28 0 0.0 0.0 0.00 0.00 0.00 69 1013.0
20260906025057 28 0 0.0 0.0 0.00 0.00 0.00 69 1012.8
20260906024601 28 0 0.0 1.6 0.00 0.00 0.00 68 1012.8
20260906024058 28 0 0.0 1.6 0.00 0.00 0.00 68 1012.8
20260906023558 28 0 0.0 1.6 0.00 0.00 0.00 68 1012.7
20260906023108 28 0 0.0 0.0 0.00 0.00 0.00 67 1012.5
20260906022556 28 0 0.0 0.0 0.00 0.00 0.00 66 1012.3
20260906022058 28 0 0.0 0.0 0.00 0.00 0.00 66 1012.4
20260906021604 29 0 0.0 0.0 0.00 0.00 0.00 66 1012.3
20260906021057 29 0 0.0 1.6 0.00 0.00 0.00 65 1012.2
20260906020557 29 0 0.0 1.6 0.00 0.00 0.00 66 1012.1
20260906015601 29 0 0.0 0.0 0.00 0.00 0.00 67 1012.1
20260906015101 29 0 0.0 0.0 0.00 0.00 0.00 67 1012.0
20260906014608 29 0 0.0 0.0 0.00 0.00 0.00 67 1011.9
20260906014059 30 0 0.0 0.0 0.00 0.00 0.00 66 1011.9
20260906013600 30 0 0.0 0.0 0.00 0.00 0.00 66 1012.0
20260906013104 30 0 0.0 0.0 0.00 0.00 0.00 66 1011.9
20260906012558 30 0 0.0 0.0 0.00 0.00 0.00 66 1011.9
20260906012057 30 0 0.0 0.0 0.00 0.00 0.00 66 1011.8
20260906011607 30 0 0.0 0.0 0.00 0.00 0.00 66 1011.8
20260906011058 30 0 0.0 0.0 0.00 0.00 0.00 65 1011.8
20260906010558 30 0 0.0 0.0 0.00 0.00 0.00 65 1011.8
20260906010108 31 0 0.0 0.0 0.00 0.00 0.00 65 1011.7
20260906005558 31 0 0.0 0.0 0.00 0.00 0.00 64 1011.7
20260906005102 31 0 0.0 0.0 0.00 0.00 0.00 62 1011.7
20260906004602 31 0 0.0 0.0 0.00 0.00 0.00 62 1011.7
20260906004100 31 0 0.0 0.0 0.00 0.00 0.00 60 1011.8
20260906003558 31 0 0.0 0.0 0.00 0.00 0.00 60 1011.7
20260906003101 32 0 0.0 0.0 0.00 0.00 0.00 58 1011.8
20260906002558 32 0 0.0 0.0 0.00 0.00 0.00 57 1011.7
20260906002058 32 0 0.0 0.0 0.00 0.00 0.00 56 1011.8
20260906001602 32 0 0.0 0.0 0.00 0.00 0.00 56 1011.7
20260906001058 32 0 0.0 0.0 0.00 0.00 0.00 55 1011.6
20260906000558 32 0 0.0 0.0 0.00 0.00 0.00 53 1011.7
20260906000109 33 0 0.0 0.0 0.00 0.00 0.00 52 1011.6
20260905235558 33 0 0.0 0.0 0.00 0.00 0.00 52 1011.7
20260905235058 33 0 0.0 0.0 0.00 0.00 0.00 52 1011.8
20260905234602 33 0 0.0 0.0 0.00 0.00 0.00 54 1011.8
20260905234057 33 0 0.0 0.0 0.00 0.00 0.00 54 1011.8
20260905233600 33 0 0.0 0.0 0.00 0.00 0.00 51 1011.9
20260905233117 33 0 0.0 0.0 0.00 0.00 0.00 51 1011.7
20260905232559 34 0 0.0 0.0 0.00 0.00 0.00 51 1011.9
20260905232058 34 0 0.0 0.0 0.00 0.00 0.00 51 1011.9
20260905231602 34 0 0.0 0.0 0.00 0.00 0.00 50 1011.7
20260905231057 34 0 0.0 0.0 0.00 0.00 0.00 49 1011.8
20260905230558 35 0 0.0 0.0 0.00 0.00 0.00 49 1011.7
20260905230104 35 0 0.0 0.0 0.00 0.00 0.00 48 1011.7
20260905225559 35 0 0.0 1.6 0.00 0.00 0.00 45 1011.7
20260905225057 36 0 0.0 1.6 0.00 0.00 0.00 45 1011.7
20260905224604 36 0 0.0 1.6 0.00 0.00 0.00 44 1011.6
20260905224059 36 0 0.0 1.6 0.00 0.00 0.00 44 1011.7
20260905223557 36 145 0.0 1.6 0.00 0.00 0.00 45 1011.6
20260905223101 37 0 0.0 3.2 0.00 0.00 0.00 43 1011.7
20260905222557 37 0 0.0 6.4 0.00 0.00 0.00 43 1011.8
20260905222058 37 0 1.6 6.4 0.00 0.00 0.00 42 1011.8
20260905221604 37 207 0.0 17.7 0.00 0.00 0.00 43 1011.9
20260905221058 37 238 3.2 17.7 0.00 0.00 0.00 43 1011.9
20260905220557 37 0 0.0 3.2 0.00 0.00 0.00 43 1012.0
20260905220106 37 0 0.0 3.2 0.00 0.00 0.00 43 1011.9
20260905215558 37 169 0.0 3.2 0.00 0.00 0.00 41 1011.9
20260905215058 37 94 0.0 3.2 0.00 0.00 0.00 40 1012.1
20260905214604 37 0 0.0 4.8 0.00 0.00 0.00 42 1012.0
20260905214057 37 0 0.0 4.8 0.00 0.00 0.00 41 1011.9
20260905213558 37 0 0.0 4.8 0.00 0.00 0.00 41 1012.1
20260905213110 37 0 0.0 4.8 0.00 0.00 0.00 43 1012.1
20260905212602 37 159 0.0 4.8 0.00 0.00 0.00 43 1012.2
20260905212057 37 145 1.6 4.8 0.00 0.00 0.00 45 1012.2
20260905211611 37 81 1.6 3.2 0.00 0.00 0.00 42 1012.1
20260905211100 37 0 0.0 4.8 0.00 0.00 0.00 43 1012.2
20260905210557 37 111 1.6 9.7 0.00 0.00 0.00 42 1012.4
20260905210112 38 138 3.2 9.7 0.00 0.00 0.00 39 1012.5
20260905205557 38 94 1.6 6.4 0.00 0.00 0.00 40 1012.6
20260905205100 38 106 1.6 6.4 0.00 0.00 0.00 39 1012.6
20260905204606 38 165 1.6 6.4 0.00 0.00 0.00 40 1012.7
20260905204057 38 103 0.0 6.4 0.00 0.00 0.00 41 1012.8
20260905203601 38 0 1.6 9.7 0.00 0.00 0.00 41 1012.8
20260905203107 38 0 1.6 9.7 0.00 0.00 0.00 42 1012.9
20260905202600 38 166 1.6 6.4 0.00 0.00 0.00 41 1012.9
20260905202058 38 201 0.0 6.4 0.00 0.00 0.00 41 1013.0
20260905201607 38 0 1.6 8.0 0.00 0.00 0.00 38 1013.0
20260905201057 38 99 0.0 11.3 0.00 0.00 0.00 42 1013.0
20260905200559 38 78 1.6 12.9 0.00 0.00 0.00 39 1013.0
20260905200104 38 203 3.2 12.9 0.00 0.00 0.00 40 1013.1
20260905195558 38 194 1.6 6.4 0.00 0.00 0.00 41 1013.1
20260905195057 38 180 3.2 9.7 0.00 0.00 0.00 38 1013.2
20260905194606 38 203 0.0 9.7 0.00 0.00 0.00 39 1013.3
20260905194058 38 293 0.0 4.8 0.00 0.00 0.00 42 1013.2
20260905193558 38 0 0.0 8.0 0.00 0.00 0.00 41 1013.4
20260905193104 38 228 1.6 8.0 0.00 0.00 0.00 42 1013.4
20260905192558 38 159 3.2 8.0 0.00 0.00 0.00 41 1013.4
20260905192057 38 92 1.6 8.0 0.00 0.00 0.00 40 1013.3
20260905191602 38 100 1.6 6.4 0.00 0.00 0.00 40 1013.4
20260905191059 38 141 1.6 4.8 0.00 0.00 0.00 42 1013.5
20260905190602 37 81 1.6 11.3 0.00 0.00 0.00 42 1013.5
20260905190108 37 174 3.2 11.3 0.00 0.00 0.00 43 1013.6
20260905185602 37 186 1.6 11.3 0.00 0.00 0.00 43 1013.6
20260905185058 37 194 3.2 11.3 0.00 0.00 0.00 42 1013.6
20260905184609 38 137 0.0 8.0 0.00 0.00 0.00 43 1013.8
20260905184058 37 57 1.6 11.3 0.00 0.00 0.00 45 1013.8
20260905183558 37 54 0.0 11.3 0.00 0.00 0.00 45 1013.8
20260905183119 37 0 4.8 11.3 0.00 0.00 0.00 45 1013.9